User: anonymous   Login
Location: Unspecified
(0.0000°N, 0.0000°E)
Time: 03:01:25
(UTC+00:00)
Language:

TBA - TO BE ASSIGNED - Orbit

View from above orbital plane
View from above orbital plane
View from above satellite
View from above satellite

Ground track
Ground track

The orbit is defined by the following mean orbital elements,

1 67456U          26145.32072970 +.00000000 +00000-0 +26141-3 0 00006
2 67456  42.9974 132.3055 0001459 273.2366  86.8318 15.27585686    09
Epoch (UTC): 25 May 2026 07:41:51
Eccentricity: 0.0001459
inclination: 42.9974°
perigee height: 482 km
apogee height: 484 km
right ascension of ascending node: 132.3055°
argument of perigee: 273.2366°
revolutions per day: 15.27585686
mean anomaly at epoch: 86.8318°

The dashed part of the orbit path shows where the satellite is in the earth's shadow,  

DLR